Weather History for Kansas City International, MO

Change the Weather History Date:

Saturday, May 11, 2013

  Actual Average Record
Temperature  
Mean Temperature 55 °F 63 °F  
Max Temperature 65 °F 73 °F 92 °F (1962)
Min Temperature 45 °F 53 °F 34 °F (1981)
Degree Days  
Heating Degree Days 10 4  
Month to date heating degree days 122 55  
Since 1 July heating degree days 5151 5075  
Cooling Degree Days 0 2  
Month to date cooling degree days 0 16  
Year to date cooling degree days 13 44  
Growing Degree Days 5 (Base 50)    
Moisture  
Dew Point 35 °F    
Average Humidity 53    
Maximum Humidity 80    
Minimum Humidity 26    
Precipitation  
Precipitation 0.00 in 0.17 in 2.60 in (1929)
Month to date precipitation 2.47 1.84  
Year to date precipitation 10.94 10.44  
Snow  
Snow 0.00 in 0.00 in T in (2005)
Month to date snowfall 0.5 0.0  
Since 1 July snowfall 31.8 18.8  
Snow Depth 0.00 in    
Sea Level Pressure  
Sea Level Pressure 30.14 in    
Wind  
Wind Speed 13 mph (NNW)    
Max Wind Speed 28 mph    
Max Gust Speed 36 mph    
Visibility 10 miles    
Events      
T = Trace of Precipitation, MM = Missing Value Source: NWS Daily Summary

Daily Weather History Graph

Daily Weather History Graph

Search for Another Location

Airport:

Trip Planner

Search our weather history database for the weather conditions in past years. The results will help you decide how hot, cold, wet, or windy it might be!

Date:

Astronomy

May. 11, 2013 Rise Set
Actual Time 6:08 AM CDT 8:22 PM CDT
Civil Twilight 5:39 AM CDT 8:52 PM CDT
Nautical Twilight 5:02 AM CDT 9:29 PM CDT
Astronomical Twilight 4:22 AM CDT 10:09 PM CDT
Moon 7:17 AM CDT (5/11) 10:02 PM CDT (5/11)
Length of Visible Light 15h 13m
Length of Day
14h 13m
Waxing Crescent, 3% of the Moon is Illuminated
May 11
Waxing Crescent
May 17
First Quarter
May 24
Full
May 31
Last Quarter
Jun 8
New

Hourly Weather History & Observations

Time (CDT) Temp. Dew Point Humidity Pressure Visibility Wind Dir Wind Speed Gust Speed Precip Events Conditions
12:53 AM 57.9 °F 46.9 °F 67% 30.05 in 10.0 mi West 4.6 mph - N/A   Clear
1:53 AM 55.0 °F 46.0 °F 72% 30.05 in 10.0 mi West 5.8 mph - N/A   Clear
2:53 AM 52.0 °F 45.0 °F 77% 30.04 in 10.0 mi West 6.9 mph - N/A   Clear
3:53 AM 50.0 °F 44.1 °F 80% 30.04 in 10.0 mi WSW 6.9 mph - N/A   Clear
4:53 AM 50.0 °F 43.0 °F 77% 30.04 in 10.0 mi West 5.8 mph - N/A   Clear
5:53 AM 50.0 °F 44.1 °F 80% 30.05 in 10.0 mi WNW 5.8 mph - N/A   Clear
6:53 AM 53.1 °F 45.0 °F 74% 30.06 in 10.0 mi West 5.8 mph - N/A   Partly Cloudy
7:53 AM 55.0 °F 45.0 °F 69% 30.10 in 10.0 mi North 13.8 mph 24.2 mph N/A   Scattered Clouds
8:53 AM 57.0 °F 39.0 °F 51% 30.13 in 10.0 mi North 23.0 mph 34.5 mph N/A   Partly Cloudy
9:53 AM 57.9 °F 30.0 °F 35% 30.16 in 10.0 mi North 26.5 mph 34.5 mph N/A   Scattered Clouds
10:53 AM 60.1 °F 30.9 °F 33% 30.18 in 10.0 mi North 21.9 mph 32.2 mph N/A   Scattered Clouds
11:53 AM 61.0 °F 34.0 °F 36% 30.19 in 10.0 mi North 18.4 mph 27.6 mph N/A   Partly Cloudy
12:53 PM 63.0 °F 32.0 °F 31% 30.19 in 10.0 mi North 17.3 mph 27.6 mph N/A   Clear
1:53 PM 64.0 °F 30.9 °F 29% 30.19 in 10.0 mi NNW 24.2 mph 29.9 mph N/A   Clear
2:53 PM 64.0 °F 28.9 °F 27% 30.19 in 10.0 mi NNW 21.9 mph 31.1 mph N/A   Clear
3:53 PM 64.0 °F 30.0 °F 28% 30.19 in 10.0 mi NNW 15.0 mph 25.3 mph N/A   Clear
4:53 PM 64.0 °F 30.9 °F 29% 30.17 in 10.0 mi North 17.3 mph 26.5 mph N/A   Clear
5:53 PM 63.0 °F 28.0 °F 27% 30.18 in 10.0 mi North 17.3 mph 27.6 mph N/A   Clear
6:53 PM 61.0 °F 27.0 °F 27% 30.18 in 10.0 mi North 19.6 mph 24.2 mph N/A   Clear
7:53 PM 57.0 °F 25.0 °F 29% 30.19 in 10.0 mi North 12.7 mph - N/A   Clear
8:53 PM 51.1 °F 27.0 °F 39% 30.21 in 10.0 mi NNW 8.1 mph - N/A   Clear
9:53 PM 48.9 °F 27.0 °F 43% 30.24 in 10.0 mi North 9.2 mph - N/A   Clear
10:53 PM 46.9 °F 26.1 °F 44% 30.25 in 10.0 mi North 6.9 mph - N/A   Clear
11:53 PM 50.0 °F 24.1 °F 36% 30.24 in 10.0 mi NW 3.5 mph - N/A   Clear